Location: Dappach
(48.9767°N, 9.6998°E)
Time: 02:15:20
(UTC+00:00)

Cosmos 1954 Rocket - Pass Details

Date: 23 May 2024
Orbit: 750 x 779 km, 74.0° (Epoch: 13 June)

Event Time Altitude Azimuth Distance (km) Brightness Sun altitude
Exits shadow 00:48:45 29° 220° (SW) 1,390 4.8 -17.5°
Maximum altitude 00:51:26 68° 296° (WNW) 841 4.2 -17.3°
Drops below altitude 10° 00:56:44 10° 19° (NNE) 2,340 7.8 -17.0°
Sets 00:59:09 0° 22° (NNE) 3,269 9.1 -16.8°
